Regional Weather Roundup
Issued by NWS Upton, NY

Current Version | Previous Version | Text Only | Print | Product List | Glossary On
Versions: 1 2 3 4 5 6 7 8 9 10 11 12 13 14 15 16 17 18 19 20 21 22 23 24 25 26 27 28 29 30 31 32 33 34 35 36 37 38 39 40 41 42 43 44 45 46 47 48 49 50
141
ASUS41 KOKX 191808
RWROKX

REGIONAL WEATHER ROUNDUP
NATIONAL WEATHER SERVICE NEW YORK NY
200 PM EDT SAT AUG 19 2017

NOTE: "FAIR" INDICATES FEW OR NO CLOUDS BELOW 12,000 FEET WITH NO
SIGNIFICANT WEATHER AND/OR OBSTRUCTIONS TO VISIBILITY.

NYZ071-072-176-178-NJZ106-104-191900-
NEW YORK CITY METRO AREA

CITY           SKY/WX    TMP DP  RH WIND       PRES   REMARKS
Central Park   PTSUNNY   84  65  52 VRB5      29.88F
Bronx Bot Gard   N/A     86  59  39 SW14      29.88S
LaGuardia APRT PTSUNNY   86  63  45 W10       29.84F
Kennedy INTL   PTSUNNY   86  68  54 SW13      29.86F
Breezy Point     N/A     79 N/A N/A S7          N/A
Newark/Liberty MOSUNNY   87  63  44 W9G16     29.85F
Teterboro      MOSUNNY   85  63  47 NW10      29.84S
$$

NYZ177-179-078>081-191900-
LONG ISLAND NEW YORK

CITY           SKY/WX    TMP DP  RH WIND       PRES   REMARKS
Jones Beach      N/A     81 N/A N/A SW5G12      N/A
Matinecock PT    N/A     86 N/A N/A MISG        N/A
Farmingdale    MOSUNNY   85  67  54 S12       29.85S
MacArthur/ISP  MOSUNNY   85  69  58 SW13      29.85S
Shirley        SUNNY     85  71  63 S13       29.85S HX  90
Mt Sinai Harb    N/A     82 N/A N/A NW8         N/A
Westhampton    MOSUNNY   84  68  58 S12       29.86S
East Hampton   FAIR      83  69  62 SW9       29.83S
Montauk          N/A     86  70  58 W6        29.84F HX  90
$$

NYZ052-065-067-191900-
HUDSON VALLEY

CITY           SKY/WX    TMP DP  RH WIND       PRES   REMARKS
White Plains   PTSUNNY   84  62  47 W8G17     29.86F
Larchmont Harb   N/A     81 N/A N/A SE5         N/A
Croton On Huds   N/A     84 N/A N/A SW1         N/A
Newburgh       MOSUNNY   82  66  57 W9G17     29.88S
Montgomery     MOSUNNY   83  64  52 W7        29.86S
Poughkeepsie   MOSUNNY   83  63  50 W7        29.83F
Albany         PTSUNNY   81  61  50 SW10      29.83S
$$

NJZ001-105-106-008-010-013-015-019>022-104-191900-
NEW JERSEY

CITY           SKY/WX    TMP DP  RH WIND       PRES   REMARKS
Newark/Liberty MOSUNNY   87  63  44 W9G16     29.85F
Teterboro      MOSUNNY   85  63  47 NW10      29.84S
Caldwell       MOSUNNY   85  64  49 W9        29.86F
Somerville     MOSUNNY   84  67  56 VRB5      29.86S
Linden         FAIR      86  60  42 W7G16     29.86F
Perth Amboy      N/A     82 N/A N/A W13         N/A
Sussex         PTSUNNY   82  64  54 VRB6      29.87S
Andover          N/A     81  64  56 SW8       29.89S
Trenton        MOSUNNY   85  64  49 VRB6      29.88S
Millville      MOSUNNY   88  68  51 NW5       29.89F HX  91
Atlantic City  PTSUNNY   86  68  54 VRB5      29.88F
Wrightstown    MOSUNNY   86  66  50 W9        29.85F
Toms River     MOSUNNY   88  68  51 W9G16     29.88F HX  91
Belmar         PTSUNNY   87  67  51 W10       29.88F HX  90
$$

PAZ047>061-062-071-191900-
EASTERN PENNSYLVANIA

CITY           SKY/WX    TMP DP  RH WIND       PRES   REMARKS
Philadelphia   MOSUNNY   86  62  44 NW10      29.89F
Allentown      SUNNY     84  63  49 W8G17     29.89F
Scranton       PTSUNNY   82  63  52 VRB7      29.90F
$$

CTZ002-004>006-009-010-012-RIZ004-006-007-MAZ004-011-015-191900-
SOUTHERN NEW ENGLAND
 IN CT

CITY           SKY/WX    TMP DP  RH WIND       PRES   REMARKS
Bradley INTL   MOSUNNY   87  63  44 W9        29.82F
Hartford       CLOUDY    85  63  47 W6        29.81F
Danbury        MOSUNNY   83  63  50 VRB5      29.87S
Wtrbury/Oxford PTSUNNY   81  64  56 VRB6      29.87F
Norwalk Harbor   N/A     81 N/A N/A S10         N/A
Bridgeport     SUNNY     85  66  53 SW13      29.84S
Meriden        PTSUNNY   83  64  52 VRB3      29.83S
New Haven      MOSUNNY   83  67  58 SW9       29.84S
Chester        FAIR      84  66  54 VRB7G15   29.84F
Groton         MOSUNNY   84  68  58 SW13      29.82S
Wilimantic     MOSUNNY   86  64  47 W9        29.82F

 IN RI

CITY           SKY/WX    TMP DP  RH WIND       PRES   REMARKS
Providence     PTSUNNY   89  64  43 W8        29.80F HX  90
Block Island   MOSUNNY   82  71  69 SW10      29.83F
Westerly       MOSUNNY   85  70  60 SW9       29.83S
 IN MA

CITY           SKY/WX    TMP DP  RH WIND       PRES   REMARKS
Boston         PTSUNNY   68  65  90 E14       29.79F FOG
Worcester      MOSUNNY   81  59  47 W15       29.85S
Westfield      MOSUNNY   86  61  42 W10       29.82F
Provincetown   CLOUDY    70  66  87 N6        29.82S
Nantucket      FOG       73  73 100 SW13      29.82S VSB 1
$$

ANZ330-335-338-340-345-350-353-355-191900-
COASTAL MARINE OBSERVATIONS


STATION/POSITION TIME  SKY/WX   TEMP    WIND        PRES    VSBY  WAVE
                                AIR SEA DIR/SP/G                  HT/PER
                 (UTC)          (F)     (DEG/KT/KT) (MB)    (MI)  (FT/S)
NY HARB ENTRANCE 1650            77 76  230/  6/  6 1011.0          3/ 6
GREAT SOUTH BAY  1730            79 79  220/ 10/ 12   N/A
23 SSW MONTAUK P 1650            73 72              1011.1          4/ 6
15 E BARNEGAT LI 1730               78                N/A           4/ 6
HUDSON CANYON    1750            75 75  230/  8/ 10 1010.7          4/ 6
KINGS POINT      1730            83 77  320/  6/  9 1010.7
EXECUTION ROCKS  NOT AVBL
WESTERN LI SOUND NOT AVBL
CENTRAL LI SOUND NOT AVBL
EASTERN LI SOUND NOT AVBL
ROBBINS REEF     1730                   290/ 10/ 13 1011.6
$$


>>>>>>>>>>>>>>>>>>>>>>>>>>>> KEY <<<<<<<<<<<<<<<<<<<<<<<<<<<
>                                                          <
>     SKY/WX - Sky Condition/Present Weather               <
>     TMP    - Temperature in Fahrenheit                   <
>     DP     - Dew Point in Fahrenheit                     <
>     RH     - Relative Humidity in Percent                <
>     WIND   - Direction (from) and Speed in MPH           <
>     PRES   - Mean Sea Level Pressure (inches of Hg)      <
>     WCI    - Wind Chill Index                            <
>     VSB    - VISIBILITY IN MILES                         <
>     HX     - HEAT INDEX                                  <
>     TC     - TEMPERATURE IN CELSIUS                      <
>     VRB    - VARIABLE WIND DIRECTION                     <
>                                                          <
>>>>>>>>>>>>>>>>>>>>>>>>>>>> KEY <<<<<<<<<<<<<<<<<<<<<<<<<<<




USA.gov is the U.S. government's official web portal to all federal, state and local government web resources and services.